This is the latest recevied weather packets stored in our database for station/object KA0EGE. If no packets are shown the sender has not sent any weather packets the latest 10 day(s).
| Time | Temp. | Humidity | Pressure | Rain* | Wind** | Luminosity | Snow |
|---|---|---|---|---|---|---|---|
| 1777842361 | 25° C | 32% | 1020.4 hPa | 0 mm | - | 529 W/m² | - |
| 1777842056 | 25° C | 34% | 1020.4 hPa | 0 mm | - | 544 W/m² | - |
| 1777841753 | 25° C | 31% | 1020.4 hPa | 0 mm | - | 560 W/m² | - |
| 1777841450 | 24.44° C | 33% | 1020.5 hPa | 0 mm | - | 575 W/m² | - |
| 1777841147 | 25° C | 34% | 1020.5 hPa | 0 mm | - | 593 W/m² | - |
| 1777840844 | 25° C | 34% | 1020.4 hPa | 0 mm | - | 607 W/m² | - |
| 1777840541 | 25° C | 34% | 1020.4 hPa | 0 mm | - | 623 W/m² | - |
| 1777840238 | 25° C | 32% | 1020.6 hPa | 0 mm | - | 637 W/m² | - |
| 1777839936 | 25° C | 33% | 1020.7 hPa | 0 mm | - | 653 W/m² | - |
| 1777839634 | 25° C | 33% | 1020.6 hPa | 0 mm | - | 666 W/m² | - |
| 1777839332 | 25° C | 31% | 1020.7 hPa | 0 mm | - | 678 W/m² | - |
| 1777839028 | 25° C | 33% | 1021 hPa | 0 mm | - | 677 W/m² | - |
| 1777838724 | 25.56° C | 33% | 1020.8 hPa | 0 mm | - | 704 W/m² | - |
| 1777838421 | 25° C | 31% | 1021 hPa | 0 mm | - | 732 W/m² | - |
| 1777838119 | 25° C | 34% | 1021.1 hPa | 0 mm | - | 761 W/m² | - |
| 1777837815 | 25° C | 35% | 1021.2 hPa | 0 mm | - | 744 W/m² | - |
| 1777837513 | 25° C | 34% | 1021.2 hPa | 0 mm | - | 670 W/m² | - |
| 1777837212 | 25° C | 35% | 1021.4 hPa | 0 mm | - | 625 W/m² | - |
| 1777836909 | 24.44° C | 36% | 1021.5 hPa | 0 mm | - | 681 W/m² | - |
| 1777836604 | 25° C | 32% | 1021.7 hPa | 0 mm | - | 694 W/m² | - |
| 1777836301 | 25° C | 33% | 1021.6 hPa | 0 mm | - | 767 W/m² | - |
| 1777835996 | 25.56° C | 33% | 1021.8 hPa | 0 mm | - | 710 W/m² | - |
| 1777835694 | 24.44° C | 33% | 1021.8 hPa | 0 mm | - | 807 W/m² | - |
| 1777835390 | 25° C | 32% | 1021.7 hPa | 0 mm | - | 666 W/m² | - |
| 1777835088 | 25° C | 35% | 1022 hPa | 0 mm | - | 765 W/m² | - |
* Rain latest hour (hover to see other rain measurements)
** Current wind speed in m/s (hover to see current wind gust speed)